User: anonymous   Login
Location: Unspecified
(0.0000°N, 0.0000°E)
Time: 10:03:19
(UTC+00:00)
Language:

STARLINK-30346 - Orbit

View from above orbital plane
View from above orbital plane
View from above satellite
View from above satellite

Ground track
Ground track

The orbit is defined by the following mean orbital elements,

1 57704U          26145.11491198 +.00000000 +00000-0 +21289-4 0 00004
2 57704  43.0073  46.0583 0001801 265.7266  94.3380 15.27591041    04
Epoch (UTC): 25 May 2026 02:45:28
Eccentricity: 0.0001801
inclination: 43.0073°
perigee height: 482 km
apogee height: 484 km
right ascension of ascending node: 46.0583°
argument of perigee: 265.7266°
revolutions per day: 15.27591041
mean anomaly at epoch: 94.3380°

The dashed part of the orbit path shows where the satellite is in the earth's shadow,  

DLR